Knoxville, TN

2:00 AM EST on November 19, 2017 (GMT -0500)
McGhee Tyson

Weather History for KTYS - January, 2013

Change the Weather History Date:

Saturday, January 12, 2013

  Actual Average Record
Temperature  
Mean Temperature 67 °F 38 °F  
Max Temperature 75 °F 47 °F 75 °F (2013)
Min Temperature 59 °F 29 °F -5 °F (1886)
Degree Days  
Heating Degree Days 0 27  
Month to date heating degree days 245 324  
Since 1 July heating degree days 1605 1757  
Cooling Degree Days 2 0  
Month to date cooling degree days 2 0  
Year to date cooling degree days 2 0  
Growing Degree Days 18 (Base 50)    
Moisture  
Dew Point 60 °F    
Average Humidity 79    
Maximum Humidity 93    
Minimum Humidity 64    
Precipitation  
Precipitation T in 0.14 in 2.35 in (1879)
Month to date precipitation 1.35 1.64  
Year to date precipitation 1.35 1.64  
Snow  
Snow 0.00 in 0.10 in - ()
Month to date snowfall 0.0 0.9  
Since 1 July snowfall T 1.7  
Snow Depth 0.00 in    
Sea Level Pressure  
Sea Level Pressure 30.05 in    
Wind  
Wind Speed 8 mph (SW)    
Max Wind Speed 22 mph    
Max Gust Speed 26 mph    
Visibility 10 miles    
Events Rain    
T = Trace of Precipitation, MM = Missing Value Source: NWS Daily Summary

Daily Weather History Graph

Daily Weather History Graph

Search for Another Location

Airport or City:

Trip Planner

Search our weather history database for the weather conditions in past years. The results will help you decide how hot, cold, wet, or windy it might be!

Date:

Astronomy

Jan. 12, 2013 Rise Set
Actual Time 7:46 AM EST 5:43 PM EST
Civil Twilight 7:18 AM EST 6:11 PM EST
Nautical Twilight 6:46 AM EST 6:42 PM EST
Astronomical Twilight 6:15 AM EST 7:13 PM EST
Moon 8:07 AM EST (1/12) 7:06 PM EST (1/12)
Length of Visible Light 10h 53m
Length of Day
9h 57m
New Moon, 1% of the Moon is Illuminated
Jan 12
New Moon
Jan 18
First Quarter
Jan 26
Full
Feb 3
Last Quarter
Feb 10
New

Hourly Weather History & Observations

Time (EST) Temp. Dew Point Humidity Pressure Visibility Wind Dir Wind Speed Gust Speed Precip Events Conditions
12:01 AM 62.6 °F 60.8 °F 94% 30.08 in 10.0 mi SW 8.1 mph - N/A Rain Light Rain
12:14 AM 62.6 °F 60.8 °F 94% 30.08 in 10.0 mi SSW 9.2 mph - 0.00 in Rain Light Rain
12:53 AM 64.0 °F 61.0 °F 90% 30.06 in 10.0 mi SW 8.1 mph - 0.00 in Rain Light Rain
1:53 AM 64.0 °F 61.0 °F 90% 30.06 in 10.0 mi SW 6.9 mph - 0.00 in Rain Light Rain
2:53 AM 64.0 °F 61.0 °F 90% 30.06 in 10.0 mi SW 10.4 mph - 0.00 in   Overcast
3:14 AM 64.4 °F 60.8 °F 88% 30.08 in 10.0 mi SW 10.4 mph - N/A   Overcast
3:53 AM 64.9 °F 61.0 °F 87% 30.06 in 10.0 mi SW 9.2 mph - N/A   Overcast
4:53 AM 64.9 °F 60.1 °F 84% 30.06 in 10.0 mi SW 9.2 mph - 0.00 in Rain Light Rain
5:53 AM 64.0 °F 61.0 °F 90% 30.05 in 10.0 mi WSW 6.9 mph - 0.00 in   Overcast
6:11 AM 64.4 °F 60.8 °F 88% 30.07 in 10.0 mi SSW 5.8 mph - N/A   Overcast
6:53 AM 64.9 °F 61.0 °F 87% 30.06 in 10.0 mi SSW 10.4 mph - N/A   Overcast
7:42 AM 62.6 °F 60.8 °F 94% 30.10 in 10.0 mi SW 4.6 mph - N/A   Mostly Cloudy
7:53 AM 63.0 °F 60.1 °F 90% 30.08 in 10.0 mi WSW 3.5 mph - N/A   Overcast
8:37 AM 64.4 °F 60.8 °F 88% 30.11 in 10.0 mi West 5.8 mph - N/A   Overcast
8:53 AM 64.0 °F 61.0 °F 90% 30.10 in 10.0 mi West 5.8 mph - N/A   Overcast
9:15 AM 64.4 °F 60.8 °F 88% 30.13 in 10.0 mi West 4.6 mph - N/A   Overcast
9:53 AM 66.0 °F 62.1 °F 87% 30.11 in 10.0 mi West 4.6 mph - N/A   Overcast
10:53 AM 68.0 °F 62.1 °F 81% 30.10 in 10.0 mi SSW 4.6 mph - N/A   Overcast
11:53 AM 69.1 °F 62.1 °F 78% 30.07 in 10.0 mi SSW 5.8 mph - 0.00 in Rain Light Rain
12:53 PM 72.0 °F 62.1 °F 71% 30.04 in 10.0 mi WSW 5.8 mph - 0.00 in   Scattered Clouds
1:53 PM 73.0 °F 61.0 °F 66% 30.03 in 10.0 mi SW 17.3 mph - N/A   Scattered Clouds
2:53 PM 72.0 °F 60.1 °F 66% 30.03 in 10.0 mi SW 18.4 mph 26.5 mph N/A   Partly Cloudy
3:53 PM 72.0 °F 60.1 °F 66% 30.02 in 10.0 mi WSW 11.5 mph - N/A   Partly Cloudy
4:53 PM 70.0 °F 60.1 °F 71% 30.01 in 10.0 mi WSW 6.9 mph - N/A   Partly Cloudy
5:53 PM 66.0 °F 57.0 °F 73% 30.01 in 10.0 mi SW 3.5 mph - N/A   Scattered Clouds
6:53 PM 64.0 °F 57.0 °F 78% 30.01 in 10.0 mi Calm Calm - N/A   Partly Cloudy
7:53 PM 63.0 °F 57.0 °F 81% 30.01 in 10.0 mi South 4.6 mph - N/A   Partly Cloudy
8:53 PM 62.1 °F 55.9 °F 80% 30.01 in 10.0 mi SW 10.4 mph - N/A   Partly Cloudy
9:53 PM 61.0 °F 55.0 °F 81% 29.99 in 10.0 mi SW 5.8 mph - N/A   Clear
10:53 PM 62.1 °F 54.0 °F 75% 29.98 in 10.0 mi WSW 4.6 mph - N/A   Clear
11:53 PM 60.1 °F 53.1 °F 78% 29.99 in 10.0 mi West 5.8 mph - N/A   Clear